TimeEDT,TemperatureF,Dew PointF,Humidity,Sea Level PressureIn,VisibilityMPH,Wind Direction,Wind SpeedMPH,Gust SpeedMPH,PrecipitationIn,Events,Conditions,WindDirDegrees,DateUTC
12:56 AM,46.9,44.1,90,30.25,10.0,Calm,Calm,-,N/A,,Clear,0,2013-04-21 04:56:00
1:56 AM,46.0,42.1,86,30.25,10.0,North,3.5,-,N/A,,Clear,10,2013-04-21 05:56:00
2:56 AM,46.0,42.1,86,30.25,10.0,North,5.8,-,N/A,,Clear,10,2013-04-21 06:56:00
3:56 AM,46.9,41.0,80,30.24,10.0,NNE,6.9,-,N/A,,Clear,30,2013-04-21 07:56:00
4:56 AM,46.9,39.9,77,30.25,10.0,NNE,6.9,-,N/A,,Clear,30,2013-04-21 08:56:00
5:56 AM,46.0,41.0,83,30.26,10.0,NNE,6.9,-,N/A,,Clear,30,2013-04-21 09:56:00
6:56 AM,46.0,41.0,83,30.28,10.0,NNE,6.9,-,N/A,,Clear,30,2013-04-21 10:56:00
7:56 AM,50.0,43.0,77,30.30,10.0,NE,9.2,-,N/A,,Clear,40,2013-04-21 11:56:00
8:56 AM,57.9,46.0,65,30.31,10.0,NE,10.4,-,N/A,,Clear,40,2013-04-21 12:56:00
9:56 AM,62.1,46.9,58,30.31,10.0,NE,17.3,21.9,N/A,,Clear,50,2013-04-21 13:56:00
10:56 AM,66.0,46.9,50,30.32,10.0,ENE,17.3,27.6,N/A,,Partly Cloudy,70,2013-04-21 14:56:00
11:56 AM,68.0,46.0,45,30.33,10.0,East,16.1,23.0,N/A,,Scattered Clouds,80,2013-04-21 15:56:00
12:56 PM,69.1,46.9,45,30.32,10.0,ENE,16.1,27.6,N/A,,Scattered Clouds,70,2013-04-21 16:56:00
1:56 PM,70.0,48.0,46,30.32,10.0,ENE,21.9,27.6,N/A,,Mostly Cloudy,60,2013-04-21 17:56:00
2:56 PM,69.1,48.9,49,30.32,10.0,East,19.6,27.6,N/A,,Scattered Clouds,80,2013-04-21 18:56:00
3:56 PM,68.0,46.9,47,30.30,10.0,ENE,20.7,31.1,N/A,,Mostly Cloudy,60,2013-04-21 19:56:00
4:56 PM,64.9,48.9,56,30.29,10.0,ENE,15.0,23.0,N/A,,Overcast,70,2013-04-21 20:56:00
5:56 PM,63.0,48.0,58,30.29,10.0,ENE,20.7,28.8,N/A,,Overcast,70,2013-04-21 21:56:00
6:56 PM,61.0,46.9,60,30.30,10.0,ENE,18.4,28.8,N/A,,Overcast,60,2013-04-21 22:56:00
7:56 PM,60.1,46.0,60,30.33,10.0,ENE,17.3,24.2,N/A,,Overcast,60,2013-04-21 23:56:00
8:56 PM,60.1,44.1,55,30.33,10.0,ENE,15.0,28.8,N/A,,Overcast,60,2013-04-22 00:56:00
9:56 PM,59.0,46.0,62,30.34,10.0,ENE,17.3,24.2,N/A,,Mostly Cloudy,60,2013-04-22 01:56:00
10:56 PM,59.0,45.0,60,30.33,10.0,NE,15.0,23.0,N/A,,Mostly Cloudy,50,2013-04-22 02:56:00
11:56 PM,57.0,43.0,59,30.31,10.0,ENE,13.8,21.9,N/A,,Scattered Clouds,60,2013-04-22 03:56:00